Regional Weather Roundup
Issued by NWS

Home | Current Version | Previous Version | Text Only | Print | Product List | Glossary Off
Versions: 1 2 3 4 5 6 7 8 9 10 11 12 13 14 15 16 17 18 19 20 21 22 23 24 25 26 27 28 29 30 31 32 33 34 35 36 37 38 39 40 41 42 43 44 45 46 47 48 49 50

000
ASUS44 KMEG 241510
RWRTN
TENNESSEE HOURLY STATE WEATHER ROUNDUP
NATIONAL WEATHER SERVICE MEMPHIS TN
900 AM CST TUE JAN 24 2017

TNZ002-004-019-021-049-052-054-088>092-241600-
WEST TENNESSEE

CITY           SKY/WX    TMP DP  RH WIND       PRES   REMARKS
MEMPHIS INTL   SUNNY     45  38  76 SE6       29.91S
NWS MEMPHIS      N/A     40 N/A N/A MISG        N/A
JACKSON        SUNNY     40  37  89 CALM      29.95R
DYERSBURG      SUNNY     37  36  93 SE7       29.95R WCI  32
UNION CITY     SUNNY    N/A N/A N/A CALM      29.92F
PARIS          MOSUNNY   39  34  81 CALM      29.93S
HUNTINGDON     SUNNY     41  36  81 E5        29.93S
$$

TNZ008-025-027-028-033-062-065-066-241600-
NORTH MIDDLE TENNESSEE

CITY           SKY/WX    TMP DP  RH WIND       PRES   REMARKS
NASHVILLE      CLOUDY    43  33  68 N6        29.96R
PORTLAND       CLOUDY    41  34  75 W6        29.94R
CLARKSVILLE    CLOUDY    41  32  70 NE5       29.95R
SMYRNA         CLOUDY    42  34  73 NW6       29.96S
GALLATIN       CLOUDY    43  34  70 VRB5      29.98R
CROSSVILLE     CLOUDY    36  34  92 VRB5      29.91R FOG     WCI  32
$$

TNZ061-075-076-078-094-096-097-241600-
SOUTH MIDDLE TENNESSEE

CITY           SKY/WX    TMP DP  RH WIND       PRES   REMARKS
TULLAHOMA      CLOUDY    39  34  81 N5        29.93S
WINCHESTER     CLOUDY    39  34  81 N3        29.94R
MCMINNVILLE    CLOUDY    39  36  87 N7          N/A  WCI  34
COLUMBIA       PTSUNNY   43  41  93 NE6       29.92S
SHELBYVILLE    CLOUDY    43  36  75 VRB7      29.95R
$$

TNZ017-018-042-046-047-241600-
NORTHEAST TENNESSEE

CITY           SKY/WX    TMP DP  RH WIND       PRES   REMARKS
TRI CITIES     CLOUDY    42  39  89 W13       29.84R
ELIZABETHTON   CLOUDY    43  41  93 W7G16     29.83R FOG
$$

TNZ012-013-036-069-073-074-241600-
CENTRAL EAST TENNESSEE

CITY           SKY/WX    TMP DP  RH WIND       PRES   REMARKS
KNOXVILLE      CLOUDY    43  37  79 W9        29.91R
OAK RIDGE      CLOUDY    44  37  76 W7        29.93R
GATLINBURG     CLOUDY    43  37  81 W5        29.90R
MORRISTOWN     CLOUDY    43  39  87 W8        29.88R
JACKSBORO      CLOUDY    43  37  81 CALM      29.93R
$$

TNZ083-085-099-241600-
SOUTHEAST TENNESSEE

CITY           SKY/WX    TMP DP  RH WIND       PRES   REMARKS
CHATTANOOGA    CLOUDY    43  34  70 N9        29.94R
$$

SKY/WX REPORTED AS FAIR MEANS FEW OR NO CLOUDS BELOW
12 THOUSAND FEET.





USA.gov is the U.S. government's official web portal to all federal, state and local government web resources and services.